Location: Caltech
(34.1382°N, 118.1253°W)
Time: 07:27:37
(UTC-07:00)

SO-67 - Visible Passes

Search period start: 23 April 2014 00:00
Search period end: 03 May 2014 00:00
Orbit: 469 x 470 km, 97.2° (Epoch: 23 April)

Date Brightness Start Highest point End Pass type
(mag) Time Alt. Az. Time Alt. Az. Time Alt. Az.
23 Apr ? 20:00:10 10° SSW 20:03:16 30° W 20:06:24 10° NW visible
26 Apr ? 20:06:11 10° SSW 20:09:07 25° W 20:12:03 10° NW visible
29 Apr ? 20:12:03 10° SSW 20:14:44 21° W 20:17:27 10° NW visible
02 May ? 20:17:45 10° SW 20:20:10 18° W 20:22:35 10° NW visible
